This demonstration page uses our WeatherBlox Daily Observations layout. Learn more.

Left ArrowRight Arrow

41.55636, -103.73856

Hourly Observations for May 17, 2021

Temp ( °F °C ) Dew Point ( °F °C ) Humidity (%) Winds ( mph kmh ) Pressure ( in mb ) Visibility ( mi km ) Precip ( " mm )
12:58 am 00:58 Clear 47 8.6 45 7 90 90 N N/A 29.98 1015 10 16.0934 N/A
1:58 am 01:58 Clear 43 6.3 42 5.4 94 94 SW 3 6 30.01 1016 10 16.0934 N/A
2:58 am 02:58 Clear 47 8.2 44 6.5 89 89 SSW 5 7 30.01 1016 10 16.0934 N/A
3:58 am 03:58 Mostly Cloudy 46 7.7 44 6.5 92 92 WSW 5 7 30 1016 10 16.0934 N/A
4:58 am 04:58 Mostly Clear 46 7.6 43 6.3 92 92 SW 6 9 29.99 1016 10 16.0934 N/A
5:58 am 05:58 Sunny 44 6.6 43 5.9 95 95 N N/A 29.98 1015 10 16.0934 N/A
6:58 am 06:58 Sunny 47 8.2 45 7.4 95 95 SSW 5 7 29.99 1016 10 16.0934 N/A
7:58 am 07:58 Sunny 52 11.1 49 9.5 90 90 ESE 3 6 29.97 1015 10 16.0934 N/A
8:58 am 08:58 Sunny 56 13.6 50 9.8 78 78 NE 3 6 29.97 1015 10 16.0934 N/A
9:58 am 09:58 Mostly Cloudy 60 15.3 49 9.2 67 67 E 10 17 29.97 1015 10 16.0934 N/A
10:58 am 10:58 Partly Cloudy 56 13.2 49 9.7 80 80 E 15 24 29.99 1016 10 16.0934 N/A
11:58 am 11:58 Partly Cloudy 60 15.4 49 9.7 69 69 ESE 9 15 29.98 1015 10 16.0934 N/A
12:58 pm 12:58 Mostly Cloudy 62 16.6 48 8.7 60 60 SE 7 11 29.96 1015 10 16.0934 N/A
1:58 pm 13:58 Mostly Cloudy 65 18.1 50 9.8 59 59 SE 8 13 29.95 1014 10 16.0934 N/A
2:58 pm 14:58 Mostly Cloudy 64 18 47 8.1 53 53 SE 9 15 29.93 1014 10 16.0934 N/A
3:58 pm 15:58 Partly Cloudy 67 19.4 47 8.2 48 48 ESE 10 17 29.91 1013 10 16.0934 N/A
4:58 pm 16:58 Mostly Cloudy 64 17.8 50 9.9 60 60 SE 15 24 29.91 1013 10 16.0934 N/A
5:58 pm 17:58 Mostly Sunny 64 17.7 53 11.4 67 67 SE 21 33 29.92 1013 10 16.0934 N/A
6:58 pm 18:58 Mostly Cloudy 59 14.9 52 11.1 78 78 SSE 20 31 29.92 1013 10 16.0934 N/A
7:58 pm 19:58 Mostly Cloudy 57 13.9 51 10.7 81 81 SSE 16 26 29.91 1013 10 16.0934 N/A
8:58 pm 20:58 Mostly Cloudy 56 13.3 51 10.6 84 84 SSE 15 24 29.93 1014 10 16.0934 N/A
9:58 pm 21:58 Mostly Cloudy 55 12.7 51 10.8 88 88 S 6 9 29.94 1014 10 16.0934 N/A
10:58 pm 22:58 Mostly Cloudy 55 12.5 51 10.5 88 88 NNE 3 6 29.95 1014 10 16.0934 N/A
11:58 pm 23:58 Mostly Cloudy 54 12.3 50 10.2 87 87 ESE 7 11 29.92 1013 10 16.0934 N/A

Powered by AerisWeather